Location: Bergfeld
(52.0500°N, 11.7833°E)
Time: 23:15:24
(UTC+00:00)

SL-16 R/B - Pass Details

Date: 17 February 2020
Orbit: 843 x 847 km, 71.0° (Epoch: 09 April)

Event Time Altitude Azimuth Distance (km) Brightness Sun altitude
Exits shadow 04:42:25 21° 240° (WSW) 1,795 3.4 -16.4°
Maximum altitude 04:46:01 52° 308° (NW) 1,048 2.4 -15.8°
Drops below altitude 10° 04:51:34 10° 25° (NNE) 2,477 4.9 -15.0°
Sets 04:54:06 0° 30° (NNE) 3,415 5.8 -14.6°
